User: anonymous   Login
Location: Unspecified
(0.0000°N, 0.0000°E)
Time: 09:50:40
(UTC+00:00)
Language:

SO-67 - Orbit

View from above orbital plane
View from above orbital plane
View from above satellite
View from above satellite

Ground track
Ground track

The orbit data is extracted from the following two-line orbital elements,

1 35870U 09049F   16342.73642054  .00005280  00000-0  91860-4 0  9995
2 35870  97.1119 355.4163 0003899  68.1033  20.4699 15.51211893403520
Epoch (UTC): 07 December 2016 17:40:26
Eccentricity: 0.0003899
inclination: 97.1119°
perigee height: 410 km
apogee height: 416 km
right ascension of ascending node: 355.4163°
argument of perigee: 68.1033°
revolutions per day: 15.51211893
mean anomaly at epoch: 20.4699°
orbit number at epoch: 40352

The dashed part of the orbit path shows where the satellite is in the earth's shadow,  

DLR